Location: Anna District 4 Election Precinct
(37.4833°N, 89.2195°W)
Time: 20:44:42
(UTC+00:00)

NOAA 12 - Pass Details

Date: 06 March 2021
Orbit: 795 x 815 km, 98.5° (Epoch: 15 April)

Event Time Altitude Azimuth Distance (km) Brightness Sun altitude
Rises 11:48:48 0° 18° (NNE) 3,345 7.5 -7.1°
Reaches altitude 10° 11:51:13 10° 23° (NNE) 2,408 6.9 -6.7°
Maximum altitude 11:56:25 53° 100° (E) 989 5.1 -5.6°
Drops below altitude 10° 12:01:34 10° 177° (S) 2,381 6.7 -4.6°
Sets 12:03:56 0° 182° (S) 3,305 7.3 -4.1°
